[[{"header":{"parameterUnit":"m.s-1","parameterCategory":1,"la1":30.2991,"la2":30.254,"lo1":-89.0895,"lo2":-89.0444,"dy":0.0017,"dx":0.0017,"nx":28,"ny":28,"refTime":"2025-01-12T03:00:00:Z","depth":0,"parameterNumber":2,"parameterNumberName":"U-component_of_WINDS"},"data":[0,0,0,0,0,0,0,0,0,0,0,0,0,0,0,0,0,0,0,0,0,0,0,0,0,0,0,0,0,0,0,0,0,0,0,0,0,0,0,0,0,0,0,0,0,0,0,0,0,0,0,0,0,0,0,0,0,0,-1.1226,-1.1226,0,-1.1274,-1.1275,-1.1275,-1.1272,-1.1271,-1.127,-1.1269,-1.1322,-1.1324,-1.1326,0,0,0,0,0,0,0,0,0,0,0,0,0,-1.1133,-1.1134,-1.1226,-1.1226,-1.1227,-1.1274,-1.1275,-1.1275,-1.1272,-1.1271,-1.127,-1.1269,-1.1322,-1.1324,-1.1327,0,0,0,0,0,0,0,0,0,0,0,0,0,-1.1176,-1.1135,-1.1225,-1.123,-1.1231,-1.1274,-1.1275,-1.1276,-1.1272,-1.1271,-1.127,-1.1269,-1.1321,-1.1324,-1.1327,-1.1369,0,0,-1.1337,-1.1338,0,0,0,0,0,0,0,0,-1.1174,-1.118,-1.1229,-1.123,-1.1231,-1.1266,-1.1261,-1.1307,-1.1272,-1.1257,-1.1269,-1.1268,-1.1305,-1.1309,-1.1321,-1.1371,-1.1373,-1.1337,-1.1339,-1.134,-1.1341,0,0,0,0,0,0,0,-1.1171,-1.1178,-1.1245,-1.123,-1.1231,-1.1231,-1.1236,-1.127,-1.1286,-1.1258,-1.1258,-1.1263,-1.1305,-1.1318,-1.1322,-1.1374,-1.1337,-1.134,-1.1342,-1.1343,-1.1462,-1.1463,0,0,0,0,0,0,-1.1166,-1.1175,-1.1243,-1.1246,-1.1199,-1.1234,-1.124,-1.1256,-1.1286,-1.1289,-1.1264,-1.1263,-1.1313,-1.1318,-1.1324,-1.1375,-1.134,-1.1343,-1.1345,-1.1461,-1.1462,-1.1464,0,0,0,0,0,0,-1.1164,-1.1172,-1.1241,-1.1211,-1.122,-1.1237,-1.1255,-1.1257,-1.127,-1.1291,-1.1294,-1.1274,-1.1312,-1.1319,-1.1357,-1.1377,-1.1344,-1.1347,-1.1459,-1.1461,-1.1463,-1.1477,0,0,0,0,0,0,-1.1162,-1.1172,-1.1187,-1.1211,-1.1221,-1.1273,-1.1256,-1.1259,-1.1275,-1.1274,-1.1301,-1.1304,-1.1312,-1.1353,-1.1361,-1.138,-1.135,-1.1458,-1.146,-1.1462,-1.1475,-1.1479,-1.1483,0,0,0,0,0,-1.1158,-1.1189,-1.1188,-1.1196,-1.124,-1.1274,-1.128,-1.1288,-1.1276,-1.1292,-1.1306,-1.1303,-1.1373,-1.1357,-1.1365,-1.1386,-1.1456,-1.1459,-1.1462,-1.1473,-1.1478,-1.1483,0,0,0,0,0,0,-1.1168,-1.1193,-1.1191,-1.1231,-1.125,-1.1274,-1.1294,-1.1293,-1.1317,-1.1315,-1.1324,-1.133,-1.1369,-1.1381,-1.1363,-1.1429,-1.1413,-1.1418,-1.1419,-1.1424,-1.1428,-1.1424,-1.1352,0,0,0,0,0,-1.1174,-1.1199,-1.122,-1.1253,-1.1263,-1.1277,-1.1292,-1.1296,-1.1317,-1.1325,-1.1342,-1.1363,-1.139,-1.1408,-1.1434,-1.1477,-1.1483,-1.1496,-1.15,-1.1503,-1.1507,-1.1531,-1.1537,-1.1473,-1.1473,-1.1473,0,0,-1.1189,-1.1205,-1.122,-1.1255,-1.1271,-1.1297,-1.1284,-1.1312,-1.1332,-1.133,-1.1367,-1.138,-1.1404,-1.1445,-1.1464,-1.1457,-1.1526,-1.1506,-1.1509,-1.1511,-1.1535,-1.1541,-1.1546,-1.1475,-1.1475,-1.1474,0,0,-1.1228,-1.1242,-1.1272,-1.1288,-1.1311,-1.132,-1.1328,-1.1351,-1.1359,-1.1396,-1.1395,-1.142,-1.1466,-1.1484,-1.1499,-1.1545,-1.1544,-1.1553,-1.1574,-1.1598,-1.1603,-1.1607,-1.1625,-1.1631,-1.1557,-1.1557,-1.1557,0,-1.1243,-1.1281,-1.1287,-1.1316,-1.1331,-1.133,-1.1361,-1.1376,-1.1408,-1.1419,-1.141,-1.1468,-1.1485,-1.153,-1.1541,-1.1553,-1.1563,-1.155,-1.1601,-1.1606,-1.1611,-1.1627,-1.1633,-1.1558,-1.1558,-1.1558,-1.1558,0,-1.1299,-1.1325,-1.1346,-1.1376,-1.1394,-1.1423,-1.1435,-1.1453,-1.1455,-1.1466,-1.1504,-1.1524,-1.1554,-1.1565,-1.1568,-1.1611,-1.1606,-1.1599,-1.1584,-1.1618,-1.1633,-1.164,-1.156,-1.156,-1.1559,-1.1559,0,0,-1.1345,-1.1377,-1.1385,-1.1399,-1.1425,-1.1446,-1.1476,-1.1504,-1.152,-1.1542,-1.1568,-1.1607,-1.1601,-1.1618,-1.1623,-1.1644,-1.168,-1.1635,-1.1636,-1.1643,-1.173,-1.1735,-1.1742,-1.1679,-1.1681,-1.1681,-1.1728,0,-1.1387,-1.1439,-1.1445,-1.1492,-1.1517,-1.1516,-1.1542,-1.1562,-1.1573,-1.1597,-1.1609,-1.1636,-1.1626,-1.1637,-1.1657,-1.1671,-1.1698,-1.1668,-1.1705,-1.1706,-1.1699,-1.175,-1.1755,-1.1798,-1.1734,-1.1735,-1.1736,0,-1.1443,-1.1466,-1.1514,-1.1537,-1.1548,-1.1571,-1.1598,-1.1621,-1.1643,-1.165,-1.1669,-1.1672,-1.1704,-1.1687,-1.1732,-1.1711,-1.1727,-1.1736,-1.1738,-1.1742,-1.1723,-1.1756,-1.1812,-1.1818,-1.1745,-1.1745,-1.1744,0,-1.1473,-1.1516,-1.155,-1.1562,-1.1589,-1.1606,-1.1618,-1.164,-1.1657,-1.168,-1.1692,-1.1719,-1.1735,-1.1757,-1.1767,-1.1754,-1.1812,-1.1796,-1.1819,-1.1818,-1.1831,-1.183,-1.1891,-1.184,-1.184,-1.184,-1.184,0,-1.152,-1.155,-1.1564,-1.1585,-1.1619,-1.1627,-1.166,-1.1673,-1.1692,-1.1716,-1.1718,-1.1741,-1.1753,-1.1778,-1.1787,-1.1823,-1.183,-1.1837,-1.1839,-1.1837,-1.1836,-1.1848,-1.1845,-1.1842,-1.1841,-1.1841,-1.1841,0,-1.1559,-1.1569,-1.1607,-1.163,-1.1637,-1.1661,-1.1681,-1.1702,-1.1712,-1.1744,-1.1751,-1.1768,-1.1798,-1.1811,-1.1848,-1.1854,-1.1895,-1.1895,-1.1887,-1.1888,-1.1911,-1.1909,-1.1981,-1.1991,-1.1933,-1.1934,-1.1934,0,-1.1588,-1.1611,-1.1636,-1.1652,-1.1665,-1.1691,-1.1708,-1.1717,-1.1735,-1.1762,-1.1781,-1.181,-1.1834,-1.1883,-1.1899,-1.1928,-1.1928,-1.1951,-1.1933,-1.193,-1.1929,-1.1928,-1.1931,-1.1955,-1.1956,-1.1956,-1.1957,0,-1.1639,-1.1643,-1.1667,-1.1693,-1.1713,-1.1734,-1.1755,-1.1768,-1.1781,-1.1801,-1.1831,-1.185,-1.1888,-1.1917,-1.1947,-1.1961,-1.1962,-1.1962,-1.1969,-1.1968,-1.1963,-1.1967,-1.1897,-1.1961,-1.196,-1.196,-1.196,-1.196,-1.1674,-1.1695,-1.1716,-1.1743,-1.1759,-1.1778,-1.18,-1.1812,-1.1837,-1.1868,-1.1872,-1.1905,-1.1928,-1.1967,-1.1982,-1.2009,-1.2003,-1.2013,-1.2016,-1.2018,-1.202,-1.1958,-1.2014,-1.2014,-1.2014,-1.2014,-1.2014,0,-1.1726,-1.1739,-1.1764,-1.1792,-1.1814,-1.1811,-1.1834,-1.1853,-1.1881,-1.1902,-1.1925,-1.196,-1.199,-1.2008,-1.2038,-1.2055,-1.2056,-1.2063,-1.2062,-1.2065,-1.2023,-1.2014,-1.2062,-1.2062,-1.2062,-1.2062,-1.2062,-1.2062,-1.1755,-1.179,-1.1797,-1.184,-1.1853,-1.1884,-1.1898,-1.1916,-1.1933,-1.1972,-1.1996,-1.2007,-1.2027,-1.2058,-1.2085,-1.209,-1.2101,-1.2108,-1.2113,-1.2073,-1.2068,-1.2064,-1.2055,-1.2111,-1.2111,-1.2153,-1.2154,-1.2154]},{"header":{"parameterUnit":"m.s-1","parameterCategory":1,"la1":30.2991,"la2":30.254,"lo1":-89.0895,"lo2":-89.0444,"dy":0.0017,"dx":0.0017,"nx":28,"ny":28,"refTime":"2025-01-12T03:00:00:Z","depth":0,"parameterNumber":3,"parameterNumberName":"V-component_of_WINDS"},"data":[0,0,0,0,0,0,0,0,0,0,0,0,0,0,0,0,0,0,0,0,0,0,0,0,0,0,0,0,0,0,0,0,0,0,0,0,0,0,0,0,0,0,0,0,0,0,0,0,0,0,0,0,0,0,0,0,0,0,0.6334,0.6334,0,0.6307,0.6307,0.6307,0.6266,0.6265,0.6264,0.6264,0.6236,0.6236,0.6236,0,0,0,0,0,0,0,0,0,0,0,0,0,0.6348,0.6348,0.6334,0.6334,0.6333,0.6307,0.6307,0.6307,0.6266,0.6265,0.6264,0.6263,0.6236,0.6236,0.6236,0,0,0,0,0,0,0,0,0,0,0,0,0,0.6334,0.6348,0.6334,0.631,0.6308,0.6308,0.6307,0.6307,0.6266,0.6265,0.6264,0.6263,0.6236,0.6236,0.6236,0.6257,0,0,0.6236,0.6236,0,0,0,0,0,0,0,0,0.6335,0.6333,0.6314,0.6312,0.6309,0.6289,0.6302,0.629,0.6266,0.6282,0.6264,0.6262,0.6254,0.6253,0.625,0.6256,0.6255,0.6236,0.6236,0.6236,0.6235,0,0,0,0,0,0,0,0.6336,0.6334,0.6323,0.6314,0.6311,0.63,0.6297,0.6299,0.6275,0.628,0.6277,0.6275,0.6253,0.625,0.6249,0.6254,0.6236,0.6236,0.6235,0.6235,0.6274,0.6275,0,0,0,0,0,0,0.634,0.6335,0.6324,0.6323,0.6319,0.63,0.6297,0.6296,0.6274,0.627,0.6276,0.6273,0.6251,0.6249,0.6248,0.627,0.6236,0.6235,0.6235,0.6273,0.6274,0.6275,0,0,0,0,0,0,0.6341,0.634,0.6325,0.6328,0.6325,0.6301,0.6301,0.6296,0.6294,0.6271,0.6266,0.6278,0.625,0.6248,0.6255,0.6269,0.6235,0.6235,0.6271,0.6273,0.6275,0.6316,0,0,0,0,0,0,0.6341,0.634,0.6349,0.6329,0.6325,0.6333,0.6302,0.6297,0.6294,0.629,0.6272,0.6268,0.6249,0.6255,0.6255,0.6268,0.6235,0.627,0.6272,0.6274,0.6313,0.6318,0.6323,0,0,0,0,0,0.6342,0.6362,0.6349,0.6348,0.6336,0.6334,0.6332,0.6311,0.6295,0.6303,0.6288,0.6268,0.6267,0.6256,0.6255,0.6269,0.6269,0.6272,0.6274,0.6311,0.6317,0.6323,0,0,0,0,0,0,0.6384,0.6359,0.6345,0.6359,0.6349,0.6327,0.6337,0.6319,0.6314,0.631,0.6283,0.628,0.6289,0.628,0.6268,0.6287,0.6265,0.6267,0.6293,0.6299,0.6304,0.6306,0.6235,0,0,0,0,0,0.6395,0.6397,0.6374,0.6388,0.6384,0.6361,0.636,0.6344,0.6333,0.6329,0.6314,0.6304,0.6301,0.6299,0.6296,0.6311,0.6306,0.632,0.6325,0.6329,0.6331,0.6337,0.6342,0.6283,0.6283,0.6283,0,0,0.6418,0.6404,0.6407,0.6396,0.6387,0.6388,0.6358,0.6361,0.6362,0.6329,0.6334,0.6323,0.6309,0.632,0.6324,0.6312,0.6346,0.6332,0.6336,0.6336,0.634,0.6346,0.6351,0.6285,0.6284,0.6284,0,0,0.646,0.645,0.646,0.6451,0.6437,0.6421,0.6423,0.6404,0.6395,0.64,0.6375,0.6374,0.6371,0.6361,0.6356,0.6392,0.6373,0.6392,0.6418,0.6424,0.6429,0.6433,0.6444,0.6449,0.6394,0.6394,0.6394,0,0.649,0.6491,0.6467,0.6471,0.6467,0.6437,0.6446,0.6438,0.6424,0.6421,0.6408,0.6401,0.639,0.6397,0.6406,0.6403,0.6404,0.6394,0.643,0.6434,0.6437,0.6448,0.6452,0.6396,0.6396,0.6396,0.6396,0,0.6528,0.6529,0.6539,0.6525,0.6521,0.6528,0.6505,0.6504,0.6488,0.6473,0.6477,0.6462,0.6454,0.6455,0.6439,0.6459,0.6452,0.6435,0.6412,0.6446,0.6455,0.6459,0.64,0.6399,0.6398,0.6398,0,0,0.6597,0.6568,0.6572,0.6564,0.6546,0.6546,0.6551,0.6542,0.6542,0.6532,0.6534,0.6531,0.6514,0.6508,0.6491,0.6497,0.6524,0.6478,0.6478,0.6487,0.6543,0.6555,0.6561,0.6511,0.6512,0.6513,0.6544,0,0.6634,0.6641,0.6618,0.663,0.663,0.6601,0.6604,0.6593,0.6579,0.6576,0.656,0.6558,0.6537,0.6533,0.6536,0.652,0.6535,0.6518,0.6512,0.6512,0.6516,0.6566,0.6579,0.661,0.6547,0.6548,0.6549,0,0.6679,0.6671,0.6683,0.6662,0.6661,0.6665,0.6654,0.6652,0.6638,0.6627,0.662,0.66,0.6601,0.658,0.6581,0.6569,0.6566,0.6557,0.6558,0.6556,0.6532,0.6565,0.6619,0.6623,0.6554,0.6554,0.6553,0,0.6726,0.6719,0.6724,0.6719,0.6695,0.6698,0.6688,0.6672,0.6668,0.6659,0.6655,0.6647,0.6642,0.6635,0.6612,0.6599,0.6616,0.6592,0.6606,0.6606,0.6611,0.6611,0.6664,0.661,0.661,0.6609,0.6609,0,0.677,0.6778,0.6745,0.6749,0.6756,0.673,0.6738,0.6725,0.6711,0.6711,0.6685,0.6685,0.6655,0.6651,0.6634,0.6637,0.6635,0.6625,0.662,0.6627,0.6628,0.6624,0.6621,0.6611,0.661,0.661,0.661,0,0.6825,0.6803,0.6807,0.6783,0.6777,0.6784,0.6763,0.6765,0.6748,0.6748,0.6746,0.6721,0.6715,0.6692,0.668,0.6668,0.6676,0.6668,0.6681,0.6678,0.6692,0.6691,0.6745,0.675,0.6693,0.6694,0.6694,0,0.6854,0.6859,0.6836,0.6833,0.6824,0.6821,0.6817,0.6791,0.6787,0.6769,0.6773,0.6765,0.6757,0.6748,0.6728,0.6719,0.6709,0.6728,0.6708,0.6714,0.6708,0.6708,0.6707,0.6733,0.6734,0.6734,0.6735,0,0.6907,0.6896,0.689,0.688,0.6875,0.6866,0.6856,0.6855,0.6826,0.6822,0.6816,0.681,0.6797,0.6789,0.6776,0.6765,0.6745,0.6742,0.6744,0.6751,0.6758,0.6753,0.6693,0.674,0.674,0.6739,0.6739,0.6739,0.6949,0.6952,0.6935,0.6929,0.6918,0.6909,0.6908,0.6892,0.6886,0.6874,0.6859,0.6854,0.6837,0.6817,0.6807,0.6802,0.6791,0.6795,0.6796,0.6797,0.68,0.6759,0.68,0.68,0.6799,0.6799,0.6799,0,0.7,0.6988,0.6983,0.6968,0.6963,0.6944,0.6931,0.6928,0.6924,0.691,0.6902,0.6894,0.6885,0.6864,0.6853,0.6853,0.6843,0.6851,0.685,0.6848,0.6811,0.6809,0.6859,0.6859,0.6859,0.6859,0.6859,0.6859,0.7027,0.703,0.7016,0.7013,0.7,0.6995,0.6988,0.6979,0.6967,0.6959,0.6952,0.6938,0.692,0.6908,0.6898,0.6892,0.6889,0.6899,0.689,0.6856,0.685,0.6845,0.6843,0.6899,0.6899,0.6927,0.6927,0.6927]}]]